Kemmerer, WY

8:07 PM MDT on June 25, 2017 (GMT -0600)
Kemmerer Municipal

Weather History for KEMM - October, 2013

Change the Weather History Date:

Friday, October 11, 2013

  Actual Average Record
Temperature  
Mean Temperature 38 °F -  
Max Temperature 44 °F 58 °F 73 °F (1991)
Min Temperature 32 °F 25 °F 14 °F (1982)
Degree Days  
Heating Degree Days 27    
Moisture  
Dew Point 30 °F    
Average Humidity 75    
Maximum Humidity 100    
Minimum Humidity 53    
Precipitation  
Precipitation 0.00 in - - ()
Sea Level Pressure  
Sea Level Pressure 30.00 in    
Wind  
Wind Speed 14 mph (WNW)    
Max Wind Speed 22 mph    
Max Gust Speed 29 mph    
Visibility 10 miles    
Events Snow    
Averages and records for this station are not official NWS values.
T = Trace of Precipitation, MM = Missing Value Source: NWS Daily Summary

Daily Weather History Graph

Daily Weather History Graph

Search for Another Location

Airport or City:

Trip Planner

Search our weather history database for the weather conditions in past years. The results will help you decide how hot, cold, wet, or windy it might be!

Date:

Astronomy

Oct. 11, 2013 Rise Set
Actual Time 7:30 AM MDT 6:46 PM MDT
Civil Twilight 7:02 AM MDT 7:14 PM MDT
Nautical Twilight 6:30 AM MDT 7:46 PM MDT
Astronomical Twilight 5:57 AM MDT 8:18 PM MDT
Moon 2:17 PM MDT (10/11) No Moon Set
Length of Visible Light 12h 12m
Length of Day
11h 16m
Waxing Crescent, 48% of the Moon is Illuminated
Oct 11
Waxing Crescent
Oct 11
First Quarter
Oct 18
Full
Oct 26
Last Quarter
Nov 3
New

Hourly Weather History & Observations

Time (MDT) Temp. Windchill Dew Point Humidity Pressure Visibility Wind Dir Wind Speed Gust Speed Precip Events Conditions
12:15 AM 35.6 °F 26.2 °F 35.6 °F 100% 29.83 in 10.0 mi West 15.0 mph 19.6 mph N/A   Overcast
12:55 AM 35.6 °F 25.5 °F 35.6 °F 100% 29.84 in 10.0 mi West 17.3 mph 23.0 mph N/A   Overcast
1:15 AM 35.6 °F 25.2 °F 33.8 °F 93% 29.86 in 10.0 mi West 18.4 mph 23.0 mph N/A   Overcast
1:35 AM 35.6 °F 26.2 °F 33.8 °F 93% 29.87 in 10.0 mi WNW 15.0 mph - N/A   Overcast
1:55 AM 35.6 °F 27.5 °F 33.8 °F 93% 29.88 in 10.0 mi WNW 11.5 mph - N/A   Overcast
2:15 AM 33.8 °F 24.3 °F 32.0 °F 93% 29.88 in 10.0 mi WNW 13.8 mph - N/A   Overcast
2:35 AM 33.8 °F 24.3 °F 32.0 °F 93% 29.89 in 10.0 mi WNW 13.8 mph - N/A   Overcast
3:15 AM 33.8 °F 27.7 °F 32.0 °F 93% 29.92 in 10.0 mi WNW 6.9 mph - N/A   Overcast
3:35 AM 33.8 °F 29.6 °F 32.0 °F 93% 29.93 in 10.0 mi WNW 4.6 mph - N/A   Overcast
3:55 AM 33.8 °F 29.6 °F 32.0 °F 93% 29.94 in 10.0 mi West 4.6 mph - N/A   Overcast
4:15 AM 33.8 °F 27.0 °F 32.0 °F 93% 29.95 in 10.0 mi West 8.1 mph - N/A   Overcast
4:55 AM 32.0 °F 24.2 °F 32.0 °F 100% 29.96 in 10.0 mi West 9.2 mph - N/A Snow Light Snow
5:55 AM 32.0 °F 24.8 °F 32.0 °F 100% 29.98 in 10.0 mi West 8.1 mph - N/A   Overcast
6:35 AM 32.0 °F 22.5 °F 30.2 °F 93% 29.97 in 10.0 mi West 12.7 mph - N/A   Mostly Cloudy
7:35 AM 32.0 °F 21.6 °F 30.2 °F 93% 29.99 in 10.0 mi West 15.0 mph - N/A   Mostly Cloudy
9:35 AM 35.6 °F 26.6 °F 32.0 °F 87% 30.02 in 10.0 mi West 13.8 mph 17.3 mph N/A   Scattered Clouds
9:55 AM 35.6 °F 26.6 °F 30.2 °F 81% 30.02 in 10.0 mi West 13.8 mph 21.9 mph N/A   Scattered Clouds
10:15 AM 37.4 °F 28.2 °F 32.0 °F 81% 30.02 in 10.0 mi West 16.1 mph - N/A   Overcast
10:35 AM 37.4 °F 27.8 °F 30.2 °F 75% 30.02 in 10.0 mi West 17.3 mph 25.3 mph N/A   Overcast
10:55 AM 39.2 °F 29.3 °F 30.2 °F 70% 30.03 in 10.0 mi West 20.7 mph 26.5 mph N/A   Mostly Cloudy
11:15 AM 41.0 °F 31.9 °F 30.2 °F 65% 30.04 in 10.0 mi West 19.6 mph 27.6 mph N/A   Mostly Cloudy
11:35 AM 41.0 °F 32.5 °F 30.2 °F 65% 30.04 in 10.0 mi West 17.3 mph 23.0 mph N/A   Overcast
11:55 AM 41.0 °F 31.6 °F 30.2 °F 65% 30.04 in 10.0 mi WNW 20.7 mph 27.6 mph N/A   Mostly Cloudy
12:15 PM 39.2 °F 30.8 °F 30.2 °F 70% 30.04 in 10.0 mi West 15.0 mph 26.5 mph N/A   Overcast
12:35 PM 39.2 °F 29.6 °F 30.2 °F 70% 30.04 in 10.0 mi WNW 19.6 mph 26.5 mph N/A   Overcast
12:55 PM 41.0 °F 32.2 °F 30.2 °F 65% 30.04 in 10.0 mi WNW 18.4 mph 28.8 mph N/A   Mostly Cloudy
1:15 PM 41.0 °F 31.4 °F 30.2 °F 65% 30.04 in 10.0 mi West 21.9 mph 26.5 mph N/A   Mostly Cloudy
1:55 PM 41.0 °F 32.5 °F 30.2 °F 65% 30.04 in 10.0 mi WNW 17.3 mph 24.2 mph N/A   Overcast
2:15 PM 44.6 °F 37.4 °F 32.0 °F 61% 30.04 in 10.0 mi WNW 16.1 mph 24.2 mph N/A   Overcast
2:35 PM 42.8 °F 34.5 °F 30.2 °F 61% 30.04 in 10.0 mi WNW 18.4 mph 26.5 mph N/A   Overcast
2:55 PM 44.6 °F 36.6 °F 30.2 °F 57% 30.04 in 10.0 mi WNW 19.6 mph 25.3 mph N/A   Mostly Cloudy
3:15 PM 44.6 °F 37.4 °F 30.2 °F 57% 30.05 in 10.0 mi NW 16.1 mph 24.2 mph N/A   Overcast
3:35 PM 41.0 °F 31.6 °F 30.2 °F 65% 30.06 in 10.0 mi NW 20.7 mph 25.3 mph N/A   Mostly Cloudy
3:55 PM 42.8 °F 34.8 °F 28.4 °F 57% 30.06 in 10.0 mi NW 17.3 mph 23.0 mph N/A   Mostly Cloudy
4:15 PM 42.8 °F 34.8 °F 28.4 °F 57% 30.07 in 10.0 mi NW 17.3 mph 23.0 mph N/A   Mostly Cloudy
4:35 PM 42.8 °F 35.1 °F 28.4 °F 57% 30.07 in 10.0 mi NW 16.1 mph - N/A   Mostly Cloudy
4:55 PM 42.8 °F 35.4 °F 28.4 °F 57% 30.07 in 10.0 mi WNW 15.0 mph 21.9 mph N/A   Mostly Cloudy
5:15 PM 42.8 °F 34.8 °F 28.4 °F 57% 30.07 in 10.0 mi NW 17.3 mph 20.7 mph N/A   Mostly Cloudy
5:35 PM 42.8 °F 36.6 °F 26.6 °F 53% 30.08 in 10.0 mi NW 11.5 mph - N/A   Scattered Clouds
5:55 PM 41.0 °F 33.9 °F 26.6 °F 57% 30.08 in 10.0 mi WNW 12.7 mph 19.6 mph N/A   Scattered Clouds
6:15 PM 39.2 °F 32.5 °F 26.6 °F 61% 30.08 in 10.0 mi WNW 10.4 mph 16.1 mph N/A   Scattered Clouds
6:35 PM 37.4 °F 29.3 °F 26.6 °F 65% 30.08 in 10.0 mi WNW 12.7 mph - N/A   Clear
7:15 PM 33.8 °F - 26.6 °F 75% 30.09 in 10.0 mi Calm Calm - N/A   Clear
8:15 PM 33.8 °F 28.6 °F 26.6 °F 75% 30.10 in 10.0 mi NW 5.8 mph - N/A   Scattered Clouds